Location: Pallagorio
(39.3000°N, 16.9000°E)
Time: 01:10:22
(UTC+00:00)

Meteor 2-13 Rocket - Pass Details

Date: 24 January 2021
Orbit: 935 x 958 km, 82.5° (Epoch: 08 March)

Event Time Altitude Azimuth Distance (km) Brightness Sun altitude
Rises 16:48:08 0° 183° (S) 3,599 7.7 -8.9°
Reaches altitude 10° 16:50:36 10° 182° (S) 2,661 7.0 -9.3°
Maximum altitude 16:56:41 82° 96° (E) 966 4.4 -10.4°
Drops below altitude 10° 17:02:51 10° 9° (N) 2,692 6.6 -11.6°
Sets 17:05:22 0° 9° (N) 3,644 7.3 -12.1°
